Current Version              Previous Version:    01  02  03  04  05  06  07  08  09  10  11  12  13  14  15  16  17  18  19  20  21  22  23  24  25  26  27  28  29  30  
   31  32  33  34  35  36  37  38  39  40  41  42  43  44  45  46  47  48  49  50  51  52  53  54  55  56  57  58  59  60  

[Printable]
197
ASUS44 KLUB 301501
RWRTX
WEST TEXAS WEATHER ROUNDUP
NATIONAL WEATHER SERVICE LUBBOCK TX
1000 AM CDT THU OCT 30 2014

NOTE: "FAIR" INDICATES FEW OR NO CLOUDS BELOW 12,000 FEET WITH NO
SIGNIFICANT WEATHER AND/OR OBSTRUCTIONS TO VISIBILITY.

TXZ004-006>008-010-012-014-016-OKZ002-301600-
TEXAS PANHANDLE/OKLAHOMA PANHANDLE

CITY           SKY/WX    TMP DP  RH WIND       PRES   REMARKS
AMARILLO       SUNNY     51  43  74 N15       30.23R
BORGER         SUNNY     55  34  45 N14       30.24R
CANADIAN       SUNNY     56  45  66 N8        30.21R
DALHART        SUNNY     58  26  29 N17       30.29R
DUMAS            N/A     52  30  42 N14G23    30.27R
GUYMON         SUNNY     56  29  35 N15       30.27R
HEREFORD       SUNNY     55  46  71 NW20      30.22R
PAMPA          SUNNY     54  43  67 N15       30.23R
$$

TXZ026-029-035-045-048-301600-
SOUTHERN PANHANDLE/SOUTH PLAINS/ROLLING PLAINS

CITY           SKY/WX    TMP DP  RH WIND       PRES   REMARKS
CHILDRESS      SUNNY     61  46  57 S5        30.15R
SEMINOLE       SUNNY     60  53  77 W9        30.18R
LUBBOCK        SUNNY     57  48  72 NW12      30.16R
PLAINVIEW      SUNNY     55  48  77 N10       30.16R
SNYDER         SUNNY     61  58  89 S8        30.16R
$$

TXZ052-054-060>062-072-078-127-140-154-169-301600-
PERMIAN BASIN/CONCHO VALLEY/BIG COUNTRY/EDWARDS PLATEAU

CITY           SKY/WX    TMP DP  RH WIND       PRES   REMARKS
ABILENE        SUNNY     67  58  72 S13       30.14R
BIG SPRING     SUNNY     64  59  85 S12       30.17R
JUNCTION       PTSUNNY   64  58  80 CALM      30.16R
MIDLAND        SUNNY     65  59  81 SW8       30.15R
ODESSA         SUNNY     65  58  78 SW9       30.16R
SAN ANGELO     SUNNY     67  60  78 S9        30.14R
SONORA         CLOUDY    64  63  94 S6        30.21R FOG
WINK           SUNNY     60  52  74 CALM      30.14R
$$

TXZ055-058-074-075-080-082-301600-
FAR WEST/SOUTHWEST MOUNTAINS/TRANS PECOS

CITY           SKY/WX    TMP DP  RH WIND       PRES   REMARKS
ALPINE         SUNNY     67  55  64 SW6       30.29R
DRYDEN           N/A     65  62  90 SE5       30.15R
EL PASO        SUNNY     57  36  45 N10       30.23R
FORT STOCKTON  SUNNY     66  55  67 SW7       30.17R
MARFA          SUNNY     61  54  77 CALM      30.28R
PECOS          SUNNY     56  51  82 CALM      30.16S
PRESIDIO       FAIR      69  56  62 CALM      30.18R
$$

TXZ014-016-019-021>030-083-301600
TEXAS TECH WEST TEXAS MESONET/TEXAS PANHANDLE/NORTHERN SOUTH PLAINS

CITY           SKY/WX    TMP DP  RH WIND       PRES   REMARKS
ABERNATHY 5ENE   N/A     56  49  78 NW12      30.16R
AMARILLO 9NNE    N/A     50  39  65 N12       30.24R
AMARILLO 7SSE    N/A     51  44  77 N21       30.22R
AMHERST 1NE      N/A     50  41  69 N13       30.18R
BOOTLEG 11WNW    N/A     55  33  43 N16       30.28R
CANADIAN 6E      N/A     57  41  55 NW7       30.19R
CAPROCK CYN SP   N/A     57  47  68 N5        30.17R
CHILDRESS 2NNE   N/A     60  46  60 SE5       30.14S
CLARENDON 2WSW   N/A     57  45  63 N2        30.17R
CLAUDE 12SW      N/A     55  47  76 N14       30.19R
DIMMITT 2NE      N/A     50  43  75 N13       30.20R
FLOYDADA 2NNE    N/A     55  49  80 W8        30.15R
FRIONA 2NE       N/A     54  41  62 N14       30.23R
GOODLETT 3W      N/A     59  44  58 E1        30.14R
HART 3N          N/A     50  44  80 N10       30.19R
HEREFORD 2NW     N/A     53  41  63 N14       30.21R
MCLEAN 1E        N/A     56  44  63 NW8       30.17R
MEMPHIS 1NE      N/A     58  44  59 NE5       30.16R
MULESHOE 2SSW    N/A     54  41  61 N9        30.20R
OLTON 6S         N/A     51  43  75 N12       30.18R
PALO DURO SP     N/A     53  45  73 N17       30.21R
PAMPA 2E         N/A     53  45  73 NW14      30.21R
PLAINVIEW 1S     N/A     52  46  79 N8        30.16R
SILVERTON 7ESE   N/A     57  48  73 N9        30.18R
TULIA 2ENE       N/A     51  46  84 N13       30.18R
TURKEY 2WSW      N/A     57  45  65 N5        30.15R
UMBARGER 3NNE    N/A     51  44  76 N18       30.22R
$$

TXZ033>036-039>041-045>048-301600
TEXAS TECH WEST TEXAS MESONET/SOUTH PLAINS

CITY           SKY/WX    TMP DP  RH WIND       PRES   REMARKS
AIKEN 3WSW       N/A     54  46  74 NW13      30.18R
ANDREWS 2NE      N/A     62  55  76 SW6       30.15S
ANTON 6SSW       N/A     54  47  76 NW14      30.17R
BROWNFIELD 2S    N/A     57  50  78 W9        30.16R
DENVR CTY 7WNW   N/A     58  50  75 W10       30.18R
GAIL 2ESE        N/A     59  55  86 S3        30.14R
LAMESA 2SE       N/A     58  55  89 SW3       30.16R
LEVELLAND 4S     N/A     55  48  77 NW12      30.17R
LUBBOCK 3WNW     N/A     56  48  74 NW6       30.17R
MORTON 1ENE      N/A     53  43  69 NW12      30.19R
ODONNELL 1N      N/A     58  53  81 W6        30.16R
PLAINS 3N        N/A     58  49  72 W9        30.18R
RALLS 1SE        N/A     56  50  79 NW2       30.16R
REESE CENTER     N/A     53  48  81 NW10      30.16R
SEMINOLE 2NNE    N/A     60  53  77 W7        30.16R
SLATON 2NE       N/A     56  50  80 NW1       30.16R
SNYDER 3E        N/A     61  58  87 S7        30.14R
SUNDOWN 8SW      N/A     56  46  69 NW13      30.18R
TAHOKA 3NNE      N/A     59  52  78 W7        30.15R
WOLFFORTH 6SSW   N/A     57  51  78 NW7       30.16S
$$

TXZ031-032-036>038-042>044-301600-
TEXAS TECH WEST TEXAS MESONET/ROLLING PLAINS

CITY           SKY/WX    TMP DP  RH WIND       PRES   REMARKS
ASPERMONT 3NE    N/A     60  51  71 N1        30.14R
FLUVANNA 3WNW    N/A     60  56  85 S10       30.14R
GRAHAM 5SSW      N/A     56  52  86 W2        30.15R
GUTHRIE 10WSW    N/A     56  45  66 N1        30.14R
HASKELL 1NW      N/A     63  52  66 S7        30.14R
JAYTON 1SSE      N/A     58  49  73 N2        30.14R
KNOX CITY 3NW    N/A     60  49  66 E1        30.15R
LK A HENRY 1NW   N/A     61  53  76 N2        30.14R
NORTHFIELD 1S    N/A     55  44  64 NW2       30.15R
ODELL 4ENE       N/A     64  48  57 S10       30.15R
PADUCAH 10SW     N/A     60  47  63 SE2       30.15R
POST 1NE         N/A     61  54  78 N1        30.15R
RRING SPRGS 3N   N/A     60  53  78 SW2       30.16R
SEYMOUR 3NW      N/A     63  49  61 S7        30.14S
SPUR 1W          N/A     60  48  65 N1        30.14R
WEINERT 2NNE     N/A     64  53  65 S6        30.15R
WHITE RVR 6NE    N/A     62  54  74 W7        30.14R
$$

TXZ052-054-060>062-072-078-127-140-154-169-301600-
TEXAS TECH WEST TEXAS MESONET/PERMIAN BASIN/
CONCHO VALLEY/BIG COUNTRY/EDWARDS PLATEAU

CITY           SKY/WX    TMP DP  RH WIND       PRES   REMARKS
COYANOSA 2N      N/A     60  52  75 W3        30.16R
JUNCTION 1SSW    N/A     64  59  86 SW2       30.17R
MERTZON 3NNE     N/A     65  61  85 S15       30.15S
SAN ANGELO 7NW   N/A     65  57  75 S6        30.14S
STRLNG CT 4WSW   N/A     61  57  88 SE1       30.16R
ST LAWRNCE 5SW   N/A     60  60  98 S10       30.15S
SWEETWATR 11SW   N/A     65  58  79 S12       30.16R
WALL 1E          N/A     65  58  79 SW2       30.15R
$$

TXZ055-058-074-075-080-082-301600-
TEXAS TECH WEST TEXAS MESONET/FAR WEST/SOUTHWEST MOUNTAINS/TRANS PECOS

CITY           SKY/WX    TMP DP  RH WIND       PRES   REMARKS
PRSMN GAP BBNP   N/A     65  58  76 S3        30.18R
GUADLPE MTN NP   N/A     70  29  22 NW2       30.29R
$$